Time,TemperatureF,DewpointF,PressureIn,WindDirection,WindDirectionDegrees,WindSpeedMPH,WindSpeedGustMPH,Humidity,HourlyPrecipIn,Conditions,Clouds,dailyrainin,SoftwareType,DateUTC
2013-05-07 00:06:00,43.8,44.0,29.84,SE,137,0.0,-999.0,99,-99.99,,,0.00,weatherlink.com 1.10,2013-05-07 04:06:00,
2013-05-07 00:21:00,43.6,43.0,29.84,SE,137,0.0,-999.0,99,-99.99,,,0.00,weatherlink.com 1.10,2013-05-07 04:21:00,
2013-05-07 00:36:00,43.6,43.0,29.83,SE,137,0.0,-999.0,99,-99.99,,,0.00,weatherlink.com 1.10,2013-05-07 04:36:00,
2013-05-07 00:51:00,43.8,44.0,29.84,SE,137,0.0,-999.0,100,-99.99,,,0.00,weatherlink.com 1.10,2013-05-07 04:51:00,
2013-05-07 01:06:00,44.3,44.0,29.84,SE,137,0.0,-999.0,100,-99.99,,,0.00,weatherlink.com 1.10,2013-05-07 05:06:00,
2013-05-07 01:21:00,44.6,45.0,29.83,SE,137,0.0,-999.0,100,-99.99,,,0.00,weatherlink.com 1.10,2013-05-07 05:21:00,
2013-05-07 01:36:00,44.8,45.0,29.82,SE,137,0.0,-999.0,100,-99.99,,,0.01,weatherlink.com 1.10,2013-05-07 05:36:00,
2013-05-07 01:51:00,44.8,45.0,29.82,SE,137,0.0,-999.0,100,-99.99,,,0.01,weatherlink.com 1.10,2013-05-07 05:51:00,
2013-05-07 02:06:00,45.1,45.0,29.81,SE,137,0.0,-999.0,100,-99.99,,,0.01,weatherlink.com 1.10,2013-05-07 06:06:00,
2013-05-07 02:22:00,45.4,45.0,29.81,SE,137,0.0,-999.0,100,-99.99,,,0.01,weatherlink.com 1.10,2013-05-07 06:22:00,
2013-05-07 02:37:00,45.7,46.0,29.80,SE,138,0.0,-999.0,100,-99.99,,,0.01,weatherlink.com 1.10,2013-05-07 06:37:00,
2013-05-07 02:52:00,45.8,46.0,29.80,SW,227,0.0,-999.0,100,-99.99,,,0.01,weatherlink.com 1.10,2013-05-07 06:52:00,
2013-05-07 03:07:00,45.7,46.0,29.80,SW,227,0.0,-999.0,100,-99.99,,,0.01,weatherlink.com 1.10,2013-05-07 07:07:00,
2013-05-07 03:22:00,45.7,46.0,29.79,SW,227,0.0,-999.0,100,-99.99,,,0.01,weatherlink.com 1.10,2013-05-07 07:22:00,
2013-05-07 03:37:00,45.8,46.0,29.80,SW,227,0.0,-999.0,100,-99.99,,,0.01,weatherlink.com 1.10,2013-05-07 07:37:00,
2013-05-07 03:52:00,45.8,46.0,29.80,SW,227,0.0,-999.0,100,-99.99,,,0.01,weatherlink.com 1.10,2013-05-07 07:52:00,
2013-05-07 04:07:00,46.2,46.0,29.79,SW,219,0.0,-999.0,100,-99.99,,,0.01,weatherlink.com 1.10,2013-05-07 08:07:00,
2013-05-07 04:22:00,46.4,46.0,29.79,SW,219,0.0,-999.0,100,-99.99,,,0.01,weatherlink.com 1.10,2013-05-07 08:22:00,
2013-05-07 04:37:00,46.5,47.0,29.78,SW,219,0.0,-999.0,100,-99.99,,,0.01,weatherlink.com 1.10,2013-05-07 08:37:00,
2013-05-07 04:52:00,46.4,46.0,29.78,SW,219,0.0,-999.0,100,-99.99,,,0.01,weatherlink.com 1.10,2013-05-07 08:52:00,
2013-05-07 05:07:00,46.4,46.0,29.78,SW,219,0.0,-999.0,100,-99.99,,,0.01,weatherlink.com 1.10,2013-05-07 09:07:00,
2013-05-07 05:22:00,46.4,46.0,29.78,SW,219,0.0,-999.0,100,-99.99,,,0.01,weatherlink.com 1.10,2013-05-07 09:22:00,
2013-05-07 05:37:00,46.4,46.0,29.77,SW,219,0.0,-999.0,100,-99.99,,,0.01,weatherlink.com 1.10,2013-05-07 09:37:00,
2013-05-07 05:52:00,46.1,46.0,29.77,SW,219,0.0,-999.0,100,-99.99,,,0.01,weatherlink.com 1.10,2013-05-07 09:52:00,
2013-05-07 06:07:00,46.0,46.0,29.77,SW,219,0.0,-999.0,100,-99.99,,,0.01,weatherlink.com 1.10,2013-05-07 10:07:00,
2013-05-07 06:22:00,45.8,46.0,29.77,SW,219,0.0,-999.0,100,-99.99,,,0.01,weatherlink.com 1.10,2013-05-07 10:22:00,
2013-05-07 06:37:00,45.8,46.0,29.80,SW,219,0.0,-999.0,100,-99.99,,,0.01,weatherlink.com 1.10,2013-05-07 10:37:00,
2013-05-07 06:52:00,46.0,46.0,29.79,SW,219,0.0,-999.0,100,-99.99,,,0.01,weatherlink.com 1.10,2013-05-07 10:52:00,
2013-05-07 07:07:00,46.1,46.0,29.80,SW,219,0.0,-999.0,100,-99.99,,,0.01,weatherlink.com 1.10,2013-05-07 11:07:00,
2013-05-07 07:22:00,46.2,46.0,29.80,SW,219,0.0,-999.0,100,-99.99,,,0.01,weatherlink.com 1.10,2013-05-07 11:22:00,
2013-05-07 07:37:00,46.7,47.0,29.82,SW,219,0.0,-999.0,100,-99.99,,,0.01,weatherlink.com 1.10,2013-05-07 11:37:00,
2013-05-07 07:52:00,46.8,47.0,29.82,SW,219,0.0,-999.0,100,-99.99,,,0.01,weatherlink.com 1.10,2013-05-07 11:52:00,
2013-05-07 08:07:00,46.8,47.0,29.83,South,188,0.0,-999.0,100,-99.99,,,0.01,weatherlink.com 1.10,2013-05-07 12:07:00,
2013-05-07 08:22:00,46.7,47.0,29.83,South,188,0.0,-999.0,100,-99.99,,,0.01,weatherlink.com 1.10,2013-05-07 12:22:00,
2013-05-07 08:37:00,46.7,47.0,29.84,South,188,0.0,-999.0,100,-99.99,,,0.01,weatherlink.com 1.10,2013-05-07 12:37:00,
2013-05-07 08:52:00,48.0,48.0,29.84,SSW,206,0.0,-999.0,100,-99.99,,,0.01,weatherlink.com 1.10,2013-05-07 12:52:00,
2013-05-07 09:07:00,49.2,49.0,29.83,SSW,203,0.0,-999.0,100,-99.99,,,0.01,weatherlink.com 1.10,2013-05-07 13:07:00,
2013-05-07 09:22:00,49.8,49.0,29.83,North,0,0.0,-999.0,97,-99.99,,,0.01,weatherlink.com 1.10,2013-05-07 13:22:00,
2013-05-07 09:37:00,51.7,50.0,29.84,South,169,0.0,-999.0,92,-99.99,,,0.01,weatherlink.com 1.10,2013-05-07 13:37:00,
2013-05-07 09:52:00,53.2,49.0,29.84,South,185,0.0,-999.0,84,-99.99,,,0.01,weatherlink.com 1.10,2013-05-07 13:52:00,
2013-05-07 10:08:00,53.3,49.0,29.84,NNW,339,0.0,-999.0,84,-99.99,,,0.01,weatherlink.com 1.10,2013-05-07 14:08:00,
2013-05-07 10:22:00,53.9,49.0,29.84,NW,318,0.0,-999.0,82,-99.99,,,0.01,weatherlink.com 1.10,2013-05-07 14:22:00,
2013-05-07 10:37:00,53.9,49.0,29.83,West,281,0.0,-999.0,82,-99.99,,,0.01,weatherlink.com 1.10,2013-05-07 14:37:00,
2013-05-07 10:52:00,53.6,49.0,29.83,NW,325,0.0,-999.0,85,-99.99,,,0.01,weatherlink.com 1.10,2013-05-07 14:52:00,
2013-05-07 11:07:00,53.2,50.0,29.83,South,176,0.0,-999.0,87,-99.99,,,0.01,weatherlink.com 1.10,2013-05-07 15:07:00,
2013-05-07 11:22:00,53.6,50.0,29.84,WSW,248,0.0,-999.0,88,-99.99,,,0.01,weatherlink.com 1.10,2013-05-07 15:22:00,
2013-05-07 11:37:00,54.1,50.0,29.84,SE,137,0.0,-999.0,85,-99.99,,,0.01,weatherlink.com 1.10,2013-05-07 15:37:00,
2013-05-07 11:52:00,53.9,49.0,29.83,SSE,167,0.0,-999.0,82,-99.99,,,0.01,weatherlink.com 1.10,2013-05-07 15:52:00,
2013-05-07 12:07:00,53.9,49.0,29.83,SW,223,0.0,-999.0,82,-99.99,,,0.01,weatherlink.com 1.10,2013-05-07 16:07:00,
2013-05-07 12:22:00,53.2,50.0,29.83,SSW,199,0.0,-999.0,87,-99.99,,,0.01,weatherlink.com 1.10,2013-05-07 16:22:00,
2013-05-07 12:37:00,50.5,48.0,29.84,South,171,0.0,-999.0,91,-99.99,,,0.01,weatherlink.com 1.10,2013-05-07 16:37:00,
2013-05-07 12:52:00,49.1,47.0,29.85,SSE,167,0.0,-999.0,92,-99.99,,,0.01,weatherlink.com 1.10,2013-05-07 16:52:00,
2013-05-07 13:07:00,48.8,47.0,29.84,SSE,167,1.0,-999.0,94,-99.99,,,0.01,weatherlink.com 1.10,2013-05-07 17:07:00,
2013-05-07 13:22:00,48.6,47.0,29.85,SSW,199,0.0,-999.0,94,-99.99,,,0.01,weatherlink.com 1.10,2013-05-07 17:22:00,
2013-05-07 13:37:00,48.6,47.0,29.85,SSW,199,0.0,-999.0,93,-99.99,,,0.01,weatherlink.com 1.10,2013-05-07 17:37:00,
2013-05-07 13:52:00,48.5,47.0,29.85,SSW,195,0.0,-999.0,94,-99.99,,,0.01,weatherlink.com 1.10,2013-05-07 17:52:00,
2013-05-07 14:07:00,48.9,47.0,29.84,SSW,199,0.0,-999.0,94,-99.99,,,0.01,weatherlink.com 1.10,2013-05-07 18:07:00,
2013-05-07 14:22:00,51.6,50.0,29.83,SSE,168,0.0,-999.0,93,-99.99,,,0.01,weatherlink.com 1.10,2013-05-07 18:22:00,
2013-05-07 14:37:00,52.6,49.0,29.82,WSW,250,0.0,-999.0,87,-99.99,,,0.01,weatherlink.com 1.10,2013-05-07 18:37:00,
2013-05-07 14:52:00,51.4,48.0,29.82,SSW,196,0.0,-999.0,87,-99.99,,,0.01,weatherlink.com 1.10,2013-05-07 18:52:00,
2013-05-07 15:07:00,49.8,47.0,29.83,South,185,2.0,-999.0,91,-99.99,,,0.01,weatherlink.com 1.10,2013-05-07 19:07:00,
2013-05-07 15:22:00,48.6,47.0,29.84,South,174,2.0,-999.0,94,-99.99,,,0.01,weatherlink.com 1.10,2013-05-07 19:22:00,
2013-05-07 15:37:00,48.2,47.0,29.84,SSW,212,0.0,-999.0,96,-99.99,,,0.01,weatherlink.com 1.10,2013-05-07 19:37:00,
2013-05-07 15:52:00,48.5,48.0,29.84,South,188,0.0,-999.0,96,-99.99,,,0.01,weatherlink.com 1.10,2013-05-07 19:52:00,
2013-05-07 16:07:00,48.8,48.0,29.83,South,188,0.0,-999.0,96,-99.99,,,0.01,weatherlink.com 1.10,2013-05-07 20:07:00,
2013-05-07 16:22:00,49.4,49.0,29.83,South,188,0.0,-999.0,97,-99.99,,,0.01,weatherlink.com 1.10,2013-05-07 20:22:00,
2013-05-07 16:37:00,49.5,48.0,29.84,South,188,0.0,-999.0,96,-99.99,,,0.01,weatherlink.com 1.10,2013-05-07 20:37:00,
2013-05-07 16:52:00,49.6,49.0,29.83,South,188,0.0,-999.0,96,-99.99,,,0.01,weatherlink.com 1.10,2013-05-07 20:52:00,
2013-05-07 17:07:00,49.4,48.0,29.83,South,188,0.0,-999.0,96,-99.99,,,0.01,weatherlink.com 1.10,2013-05-07 21:07:00,
2013-05-07 17:22:00,49.6,49.0,29.83,South,188,0.0,-999.0,96,-99.99,,,0.01,weatherlink.com 1.10,2013-05-07 21:22:00,
2013-05-07 17:38:00,49.4,48.0,29.83,South,188,0.0,-999.0,95,-99.99,,,0.01,weatherlink.com 1.10,2013-05-07 21:38:00,
2013-05-07 17:54:00,49.2,48.0,29.85,South,188,0.0,-999.0,96,-99.99,,,0.01,weatherlink.com 1.10,2013-05-07 21:54:00,
2013-05-07 18:08:00,48.8,48.0,29.85,South,188,0.0,-999.0,96,-99.99,,,0.01,weatherlink.com 1.10,2013-05-07 22:08:00,
2013-05-07 18:23:00,48.5,48.0,29.86,South,188,0.0,-999.0,97,-99.99,,,0.01,weatherlink.com 1.10,2013-05-07 22:23:00,
2013-05-07 18:38:00,48.3,48.0,29.86,South,188,0.0,-999.0,97,-99.99,,,0.01,weatherlink.com 1.10,2013-05-07 22:38:00,
2013-05-07 18:53:00,47.9,47.0,29.86,South,188,0.0,-999.0,98,-99.99,,,0.01,weatherlink.com 1.10,2013-05-07 22:53:00,
2013-05-07 19:08:00,47.4,47.0,29.87,SW,233,0.0,-999.0,98,-99.99,,,0.01,weatherlink.com 1.10,2013-05-07 23:08:00,
2013-05-07 19:23:00,47.0,47.0,29.87,SSW,203,0.0,-999.0,98,-99.99,,,0.01,weatherlink.com 1.10,2013-05-07 23:23:00,
2013-05-07 19:38:00,46.5,46.0,29.86,SSW,210,0.0,-999.0,96,-99.99,,,0.01,weatherlink.com 1.10,2013-05-07 23:38:00,
2013-05-07 19:53:00,46.4,46.0,29.86,SSW,210,0.0,-999.0,97,-99.99,,,0.01,weatherlink.com 1.10,2013-05-07 23:53:00,
2013-05-07 20:08:00,46.4,46.0,29.87,SSW,210,1.0,-999.0,98,-99.99,,,0.01,weatherlink.com 1.10,2013-05-08 00:08:00,
2013-05-07 20:23:00,46.2,46.0,29.88,SW,219,0.0,-999.0,99,-99.99,,,0.01,weatherlink.com 1.10,2013-05-08 00:23:00,
2013-05-07 20:38:00,46.2,46.0,29.87,South,182,2.0,-999.0,99,-99.99,,,0.01,weatherlink.com 1.10,2013-05-08 00:38:00,
2013-05-07 20:53:00,46.0,46.0,29.86,South,184,0.0,-999.0,99,-99.99,,,0.01,weatherlink.com 1.10,2013-05-08 00:53:00,
2013-05-07 21:08:00,46.0,46.0,29.86,SSW,193,0.0,-999.0,99,-99.99,,,0.01,weatherlink.com 1.10,2013-05-08 01:08:00,
2013-05-07 21:23:00,46.0,46.0,29.86,SSE,164,1.0,-999.0,100,-99.99,,,0.01,weatherlink.com 1.10,2013-05-08 01:23:00,
2013-05-07 21:38:00,45.7,46.0,29.84,SSE,168,1.0,-999.0,99,-99.99,,,0.01,weatherlink.com 1.10,2013-05-08 01:38:00,
2013-05-07 21:53:00,45.4,45.0,29.84,SSE,164,0.0,-999.0,100,-99.99,,,0.01,weatherlink.com 1.10,2013-05-08 01:53:00,
2013-05-07 22:08:00,45.5,46.0,29.85,South,178,2.0,-999.0,100,-99.99,,,0.01,weatherlink.com 1.10,2013-05-08 02:08:00,
2013-05-07 22:23:00,45.8,46.0,29.85,South,191,0.0,-999.0,100,-99.99,,,0.01,weatherlink.com 1.10,2013-05-08 02:23:00,
2013-05-07 22:38:00,46.1,46.0,29.85,SSE,157,0.0,-999.0,100,-99.99,,,0.01,weatherlink.com 1.10,2013-05-08 02:38:00,
2013-05-07 22:53:00,46.2,46.0,29.86,South,175,0.0,-999.0,100,-99.99,,,0.01,weatherlink.com 1.10,2013-05-08 02:53:00,
2013-05-07 23:08:00,46.2,46.0,29.86,South,181,0.0,-999.0,100,-99.99,,,0.01,weatherlink.com 1.10,2013-05-08 03:08:00,
2013-05-07 23:23:00,46.1,46.0,29.87,South,181,0.0,-999.0,100,-99.99,,,0.01,weatherlink.com 1.10,2013-05-08 03:23:00,
2013-05-07 23:38:00,46.4,46.0,29.86,South,181,0.0,-999.0,100,-99.99,,,0.01,weatherlink.com 1.10,2013-05-08 03:38:00,
2013-05-07 23:53:00,46.7,47.0,29.87,South,181,1.0,-999.0,100,-99.99,,,0.01,weatherlink.com 1.10,2013-05-08 03:53:00,